Doylestown, PA

6:53 AM EST on December 11, 2019 (GMT -0500)
Doylestown

Weather History for KDYL - October, 2019

Change the Weather History Date:

Sunday, October 13, 2019

  Actual Average (KTTN) Record (KTTN)
Temperature  
Mean Temperature 56 °F 55 °F  
Max Temperature 66 °F 66 °F 86 °F (1954)
Min Temperature 46 °F 45 °F 30 °F (2012)
Degree Days  
Heating Degree Days 9 10  
Month to date heating degree days 104  
Since 1 July heating degree days 169  
Cooling Degree Days 0 0  
Month to date cooling degree days 7  
Year to date cooling degree days 962  
Growing Degree Days 6 (Base 50)    
Moisture  
Dew Point 47 °F    
Average Humidity 70    
Maximum Humidity 90    
Minimum Humidity 45    
Precipitation  
Precipitation 0.00 in 0.11 in 1.20 in (1866)
Month to date precipitation 1.91  
Year to date precipitation 37.16  
Sea Level Pressure  
Sea Level Pressure 30.05 in    
Wind  
Wind Speed 3 mph (East)    
Max Wind Speed 7 mph    
Max Gust Speed -    
Visibility 10 miles    
Events Rain    
T = Trace of Precipitation, MM = Missing Value Source: NWS Daily Summary

Daily Weather History Graph

Daily Weather History Graph

Search for Another Location

Airport or City:

Astronomy

Oct. 13, 2019 Rise Set
Actual Time 7:08 AM EDT 6:23 PM EDT
Civil Twilight 6:41 AM EDT 6:51 PM EDT
Nautical Twilight 6:09 AM EDT 7:22 PM EDT
Astronomical Twilight 5:38 AM EDT 7:54 PM EDT
Moon 6:45 PM EDT (10/13) 6:40 AM EDT (10/13)
Length of Visible Light 12h 09m
Length of Day
11h 15m
Full, 100% of the Moon is Illuminated
Oct 13
Full
Oct 13
Full
Oct 21
Last Quarter
Oct 27
New
Nov 4
First Quarter

Hourly Weather History & Observations

Time (EDT) Temp. Dew Point Humidity Pressure Visibility Wind Dir Wind Speed Gust Speed Precip Events Conditions
12:54 AM 55.9 °F 46.0 °F 69% 30.02 in 10.0 mi NNW 4.6 mph - N/A   Clear
1:54 AM 54.0 °F 45.0 °F 72% 30.03 in 10.0 mi NW 5.8 mph - N/A   Clear
2:54 AM 52.0 °F 43.0 °F 71% 30.04 in 10.0 mi NW 4.6 mph - N/A   Clear
3:54 AM 48.0 °F 42.1 °F 80% 30.05 in 10.0 mi Calm Calm - N/A   Clear
4:54 AM 48.0 °F 41.0 °F 77% 30.06 in 10.0 mi Calm Calm - N/A   Clear
5:54 AM 46.0 °F 39.9 °F 79% 30.08 in 10.0 mi Calm Calm - N/A   Clear
6:54 AM 46.0 °F 39.9 °F 79% 30.09 in 10.0 mi Calm Calm - N/A   Clear
7:54 AM 48.0 °F 42.1 °F 80% 30.12 in 10.0 mi Calm Calm - N/A   Clear
8:54 AM 52.0 °F 44.1 °F 74% 30.13 in 10.0 mi NNE 5.8 mph - N/A   Clear
9:54 AM 57.9 °F 45.0 °F 62% 30.13 in 10.0 mi North 6.9 mph - N/A   Mostly Cloudy
10:54 AM 57.9 °F 43.0 °F 58% 30.12 in 10.0 mi NE 6.9 mph - N/A   Mostly Cloudy
11:54 AM 64.0 °F 44.1 °F 48% 30.11 in 10.0 mi Variable 3.5 mph - N/A   Clear
12:54 PM 63.0 °F 43.0 °F 48% 30.09 in 10.0 mi SSE 3.5 mph - N/A   Scattered Clouds
1:54 PM 64.9 °F 45.0 °F 48% 30.07 in 10.0 mi Variable 3.5 mph - N/A   Mostly Cloudy
2:54 PM 66.0 °F 45.0 °F 47% 30.05 in 10.0 mi Variable 3.5 mph - N/A   Overcast
3:54 PM 66.0 °F 44.1 °F 45% 30.05 in 10.0 mi Variable 3.5 mph - N/A   Scattered Clouds
4:54 PM 64.9 °F 45.0 °F 48% 30.03 in 10.0 mi Calm Calm - N/A   Overcast
6:54 PM 62.1 °F 48.0 °F 60% 30.03 in 10.0 mi Calm Calm - N/A   Overcast
7:54 PM 62.1 °F 48.9 °F 62% 30.03 in 10.0 mi SSE 5.8 mph - N/A   Overcast
8:54 PM 61.0 °F 52.0 °F 72% 30.03 in 10.0 mi SSE 5.8 mph - N/A   Overcast
9:54 PM 60.1 °F 53.1 °F 78% 30.02 in 10.0 mi Variable 3.5 mph - N/A   Overcast
10:52 PM 59.0 °F 53.6 °F 82% 30.02 in 10.0 mi Calm Calm - N/A   Overcast
10:54 PM 59.0 °F 54.0 °F 83% 30.01 in 10.0 mi SE 3.5 mph - N/A   Overcast
11:01 PM 57.9 °F 54.0 °F 87% 30.01 in 10.0 mi Calm Calm - N/A   Overcast
11:09 PM 57.9 °F 54.0 °F 87% 30.02 in 10.0 mi SSE 3.5 mph - N/A   Overcast
11:16 PM 57.9 °F 55.0 °F 90% 30.02 in 10.0 mi Calm Calm - N/A   Overcast
11:27 PM 57.9 °F 54.0 °F 87% 30.02 in 10.0 mi SSE 3.5 mph - N/A   Overcast
11:54 PM 57.9 °F 55.0 °F 90% 30.01 in 10.0 mi Calm Calm - 0.00 in Rain Light Rain